CW4331 Weather Reports


time (UTC)temp
C
wind
direction
speed
KPH
gust
KPH
rain 1hr
cm
rain 24hr
cm
rain mn
cm
humidity
%
barometer
mb
20260509200636 7 9 14.5 29.0 0.00 0.00 0.00 55 1004.4
20260509200356 7 337 17.7 29.0 0.00 0.00 0.00 57 1004.4
20260509200159 7 22 11.3 30.6 0.00 0.00 0.00 62 1004.4
20260509195701 6 334 9.7 30.6 0.00 0.00 0.00 65 1004.4
20260509195225 6 44 12.9 32.2 0.00 0.00 0.00 66 1004.2
20260509195122 6 44 12.9 32.2 0.00 0.00 0.00 66 1004.2
20260509194824 6 5 12.9 32.2 0.00 0.00 0.00 67 1004.1
20260509194625 6 307 14.5 32.2 0.00 0.00 0.00 67 1004.0
20260509194152 6 355 12.9 40.2 0.00 0.00 0.00 65 1003.8
20260509193636 7 291 14.5 40.2 0.00 0.00 0.00 60 1003.6
20260509193422 7 17 20.9 40.2 0.00 0.00 0.00 57 1003.5
20260509193318 7 17 20.9 40.2 0.00 0.00 0.00 57 1003.5
20260509193122 8 355 22.5 38.6 0.00 0.00 0.00 55 1003.4
20260509192619 8 341 17.7 38.6 0.00 0.00 0.00 42 1003.2
20260509192204 9 21 14.5 33.8 0.00 0.00 0.00 40 1003.1
20260509191910 9 272 17.7 33.8 0.00 0.00 0.00 39 1003.0
20260509191629 9 286 22.5 33.8 0.00 0.00 0.00 38 1002.9
20260509191133 9 261 16.1 49.9 0.00 0.00 0.00 40 1002.8
20260509190633 9 294 22.5 49.9 0.00 0.00 0.00 38 1002.8
20260509190359 9 321 32.2 49.9 0.00 0.00 0.00 38 1002.7
20260509190200 9 331 17.7 41.8 0.00 0.00 0.00 40 1002.6
20260509185659 9 299 25.7 38.6 0.00 0.00 0.00 40 1002.5
20260509185123 9 306 25.7 38.6 0.00 0.00 0.00 41 1002.4
20260509184850 9 302 24.1 38.6 0.00 0.00 0.00 40 1002.3
20260509184613 9 267 17.7 43.5 0.00 0.00 0.00 40 1002.2
20260509184120 9 296 17.7 43.5 0.00 0.00 0.00 40 1002.1
20260509183706 9 337 24.1 41.8 0.00 0.00 0.00 40 1002.0
20260509183329 9 301 17.7 40.2 0.00 0.00 0.00 39 1002.0
20260509183134 10 321 19.3 40.2 0.00 0.00 0.00 39 1001.7
20260509182620 10 281 25.7 41.8 0.00 0.00 0.00 37 1001.8
20260509182208 10 337 24.1 37.0 0.00 0.00 0.00 37 1001.5
20260509181908 10 336 22.5 41.8 0.00 0.00 0.00 37 1001.5
20260509181825 10 336 22.5 41.8 0.00 0.00 0.00 37 1001.5
20260509181730 10 323 24.1 41.8 0.00 0.00 0.00 37 1001.4
20260509181111 10 267 20.9 41.8 0.00 0.00 0.00 36 1001.3
20260509180654 10 316 22.5 45.1 0.00 0.00 0.00 35 1001.1
20260509180612 10 316 22.5 45.1 0.00 0.00 0.00 35 1001.1
20260509180315 11 346 22.5 45.1 0.00 0.00 0.00 34 1001.1
20260509180116 11 287 27.4 45.1 0.00 0.00 0.00 35 1001.1
20260509175701 10 311 29.0 41.8 0.00 0.00 0.00 34 1000.9
20260509175618 10 311 29.0 41.8 0.00 0.00 0.00 34 1000.9
20260509175145 11 274 24.1 41.8 0.00 0.00 0.00 34 1000.9
20260509174925 11 318 24.1 41.8 0.00 0.00 0.00 34 1000.9
20260509174704 10 325 27.4 41.8 0.00 0.00 0.00 33 1000.9
20260509174148 10 307 29.0 40.2 0.00 0.00 0.00 34 1000.9
20260509173652 10 289 22.5 46.7 0.00 0.00 0.00 34 1000.4
20260509173317 10 306 24.1 46.7 0.00 0.00 0.00 35 1000.6
20260509173140 10 310 25.7 46.7 0.00 0.00 0.00 35 1000.6
20260509172639 10 303 22.5 46.7 0.00 0.00 0.00 35 1000.6
20260509172123 10 311 20.9 43.5 0.00 0.00 0.00 34 1000.6
20260509171849 10 319 22.5 46.7 0.00 0.00 0.00 33 1000.4
20260509171651 11 287 24.1 46.7 0.00 0.00 0.00 33 1000.4
20260509171155 11 316 22.5 38.6 0.00 0.00 0.00 33 1000.3
20260509170620 11 309 20.9 35.4 0.00 0.00 0.00 34 1000.3
20260509170342 11 334 20.9 43.5 0.00 0.00 0.00 32 1000.2
20260509170124 11 327 17.7 43.5 0.00 0.00 0.00 34 1000.1
20260509165629 11 328 20.9 43.5 0.00 0.00 0.00 32 1000.0
20260509165133 11 323 20.9 38.6 0.00 0.00 0.00 34 1000.0
20260509164817 11 318 25.7 46.7 0.00 0.00 0.00 33 999.9
20260509164658 10 282 24.1 46.7 0.00 0.00 0.00 34 1000.1
20260509164121 10 332 30.6 49.9 0.00 0.00 0.00 33 1000.2
20260509163723 11 304 29.0 57.9 0.00 0.00 0.00 32 1000.0
20260509163640 11 304 29.0 57.9 0.00 0.00 0.00 32 1000.0
20260509163341 11 317 22.5 57.9 0.00 0.00 0.00 32 999.8
20260509163126 11 299 33.8 57.9 0.00 0.00 0.00 31 1000.0
20260509162651 11 339 19.3 37.0 0.00 0.00 0.00 33 999.7
20260509162155 10 276 19.3 38.6 0.00 0.00 0.00 33 999.7
20260509161833 10 320 25.7 38.6 0.00 0.00 0.00 32 999.5
20260509161612 10 342 20.9 43.5 0.00 0.00 0.00 33 999.6
20260509161157 10 329 20.9 43.5 0.00 0.00 0.00 33 999.5
20260509160701 10 307 27.4 38.6 0.00 0.00 0.00 33 999.5
20260509160341 10 289 20.9 38.6 0.00 0.00 0.00 33 999.5
20260509160120 10 294 20.9 38.6 0.00 0.00 0.00 34 999.4
20260509155627 10 271 25.7 46.7 0.00 0.00 0.00 33 999.4
20260509155130 10 306 24.1 41.8 0.00 0.00 0.00 33 999.3
20260509154836 9 261 22.5 45.1 0.00 0.00 0.00 33 999.4
20260509154657 9 281 22.5 45.1 0.00 0.00 0.00 33 999.4
20260509154615 9 281 22.5 45.1 0.00 0.00 0.00 33 999.4
20260509154220 9 325 25.7 45.1 0.00 0.00 0.00 34 999.2
20260509154137 9 325 25.7 45.1 0.00 0.00 0.00 34 999.2
20260509153723 9 307 19.3 45.1 0.00 0.00 0.00 34 999.2
20260509153640 9 307 19.3 45.1 0.00 0.00 0.00 34 999.2
20260509153349 9 286 27.4 46.7 0.00 0.00 0.00 34 999.0
20260509153113 9 304 22.5 46.7 0.00 0.00 0.00 34 999.0
20260509152616 9 274 25.7 46.7 0.00 0.00 0.00 34 998.9
20260509152222 9 308 24.1 38.6 0.00 0.00 0.00 33 998.9
20260509152119 9 308 24.1 38.6 0.00 0.00 0.00 33 998.9
20260509151858 9 272 25.7 38.6 0.00 0.00 0.00 33 998.9
20260509151619 10 325 29.0 48.3 0.00 0.00 0.00 33 998.8
20260509151125 10 268 25.7 48.3 0.00 0.00 0.00 33 998.6
20260509150632 10 288 29.0 49.9 0.00 0.00 0.00 33 998.6
20260509150414 10 283 24.1 41.8 0.00 0.00 0.00 33 998.5
20260509150219 10 292 24.1 41.8 0.00 0.00 0.00 33 998.5
20260509150115 10 292 24.1 41.8 0.00 0.00 0.00 33 998.5
20260509145623 10 321 24.1 40.2 0.00 0.00 0.00 34 998.4
20260509145130 10 302 24.1 38.6 0.00 0.00 0.00 33 998.5
20260509144833 10 295 20.9 40.2 0.00 0.00 0.00 33 998.2
20260509144615 10 319 20.9 40.2 0.00 0.00 0.00 33 998.2
20260509144123 10 307 25.7 43.5 0.00 0.00 0.00 33 998.1
20260509143709 10 302 20.9 37.0 0.00 0.00 0.00 33 998.1
20260509143329 10 288 16.1 30.6 0.00 0.00 0.00 35 998.1
20260509143129 10 298 17.7 30.6 0.00 0.00 0.00 35 998.0
20260509142615 10 297 19.3 33.8 0.00 0.00 0.00 35 998.0
20260509142122 10 320 14.5 29.0 0.00 0.00 0.00 37 997.9
20260509141822 10 286 19.3 29.0 0.00 0.00 0.00 37 997.9
20260509141643 10 273 17.7 29.0 0.00 0.00 0.00 38 997.9
20260509141205 10 302 14.5 27.4 0.00 0.00 0.00 39 998.0
20260509140628 10 294 17.7 27.4 0.00 0.00 0.00 37 998.0
20260509140452 10 342 14.5 27.4 0.00 0.00 0.00 38 997.9
20260509140410 10 342 14.5 27.4 0.00 0.00 0.00 38 997.9
20260509140127 10 294 14.5 27.4 0.00 0.00 0.00 38 997.9
20260509135612 9 271 17.7 27.4 0.00 0.00 0.00 38 997.9
20260509135117 9 275 12.9 33.8 0.00 0.00 0.00 40 997.9
20260509135000 9 311 14.5 33.8 0.00 0.00 0.00 40 997.9
20260509134717 9 282 19.3 40.2 0.00 0.00 0.00 40 998.0
20260509134138 9 299 19.3 40.2 0.00 0.00 0.00 40 998.0
20260509133702 9 299 20.9 37.0 0.00 0.00 0.00 40 998.0
20260509133318 9 289 24.1 38.6 0.00 0.00 0.00 40 998.1
20260509133201 9 277 16.1 30.6 0.00 0.00 0.00 42 998.0
20260509132625 9 298 17.7 29.0 0.00 0.00 0.00 42 997.8
20260509132233 9 284 14.5 32.2 0.00 0.00 0.00 44 997.8
20260509131913 9 329 16.1 37.0 0.00 0.00 0.00 44 997.9
20260509131830 9 329 16.1 37.0 0.00 0.00 0.00 44 997.9
20260509131638 9 304 11.3 37.0 0.00 0.00 0.00 44 997.9
20260509131118 9 283 16.1 32.2 0.00 0.00 0.00 46 997.7
20260509130621 8 268 16.1 30.6 0.00 0.00 0.00 46 997.8
20260509130348 8 277 22.5 30.6 0.00 0.00 0.00 46 997.7
20260509130150 8 267 16.1 30.6 0.00 0.00 0.00 48 997.8
20260509125635 8 282 11.3 27.4 0.00 0.00 0.00 49 997.7
20260509125201 8 277 17.7 27.4 0.00 0.00 0.00 48 997.7
20260509124921 8 286 14.5 27.4 0.00 0.00 0.00 49 997.8
20260509124817 8 286 14.5 27.4 0.00 0.00 0.00 49 997.8
20260509124621 8 265 16.1 27.4 0.00 0.00 0.00 49 997.7
20260509124126 8 277 17.7 27.4 0.00 0.00 0.00 50 997.7
20260509123634 8 306 16.1 30.6 0.00 0.00 0.00 50 997.6
20260509123341 8 277 17.7 30.6 0.00 0.00 0.00 50 997.6
20260509123121 8 271 16.1 30.6 0.00 0.00 0.00 51 997.5
20260509122641 8 275 17.7 27.4 0.00 0.00 0.00 50 997.4
20260509122207 8 279 14.5 24.1 0.00 0.00 0.00 51 997.4
20260509122124 8 279 14.5 24.1 0.00 0.00 0.00 51 997.4
20260509121911 8 294 14.5 24.1 0.00 0.00 0.00 51 997.3
20260509121611 8 279 14.5 24.1 0.00 0.00 0.00 52 997.3
20260509121156 8 284 12.9 24.1 0.00 0.00 0.00 56 997.3
20260509120636 8 275 9.7 16.1 0.00 0.00 0.00 58 997.3
20260509120321 8 276 9.7 16.1 0.00 0.00 0.00 59 997.3
20260509120121 7 284 4.8 12.9 0.00 0.00 0.00 59 997.2
20260509115706 7 249 6.4 12.9 0.00 0.03 0.00 59 997.3
20260509115624 7 249 6.4 12.9 0.00 0.03 0.00 59 997.3
20260509115131 7 247 8.0 12.9 0.00 0.03 0.00 59 997.3
20260509114913 7 244 6.4 11.3 0.00 0.03 0.00 60 997.2
20260509114654 7 256 4.8 12.9 0.00 0.03 0.00 60 997.1
20260509114611 7 256 4.8 12.9 0.00 0.03 0.00 60 997.1
20260509114136 7 261 8.0 12.9 0.00 0.03 0.00 61 997.2
20260509113623 7 270 8.0 12.9 0.00 0.03 0.00 62 997.1
20260509113344 7 277 4.8 11.3 0.00 0.03 0.00 61 997.1
20260509113129 7 284 4.8 11.3 0.00 0.03 0.00 61 997.1
20260509112708 6 272 8.0 11.3 0.00 0.03 0.00 61 997.1
20260509112148 7 266 6.4 8.0 0.00 0.03 0.00 60 997.1
20260509111847 6 298 3.2 8.0 0.00 0.03 0.00 60 997.0
20260509111628 6 302 4.8 8.0 0.00 0.03 0.00 60 996.9
20260509111233 6 294 3.2 9.7 0.00 0.03 0.00 59 996.9
20260509110733 6 336 6.4 9.7 0.00 0.03 0.00 59 997.1
20260509110412 6 302 6.4 9.7 0.00 0.03 0.00 59 997.1
20260509110329 6 302 6.4 9.7 0.00 0.03 0.00 59 997.1
20260509110113 7 322 6.4 9.7 0.00 0.03 0.00 59 997.1
20260509105639 7 321 6.4 14.5 0.00 0.03 0.00 59 997.1
20260509105205 7 305 8.0 19.3 0.00 0.03 0.00 59 997.1
20260509105122 7 305 8.0 19.3 0.00 0.03 0.00 59 997.1
20260509104843 7 302 8.0 19.3 0.00 0.03 0.00 59 997.1
20260509104729 7 333 8.0 20.9 0.00 0.03 0.00 59 997.2
20260509104114 7 330 11.3 20.9 0.00 0.03 0.00 59 997.2
20260509103714 7 322 12.9 20.9 0.00 0.03 0.00 60 997.1
20260509103315 7 275 11.3 19.3 0.00 0.03 0.00 60 997.1
20260509103139 7 329 11.3 19.3 0.00 0.03 0.00 60 997.1
20260509102720 7 310 12.9 19.3 0.00 0.03 0.00 63 997.2
20260509102616 7 310 12.9 19.3 0.00 0.03 0.00 63 997.2
20260509102123 7 282 8.0 24.1 0.00 0.03 0.00 65 997.2
20260509101905 6 309 9.7 24.1 0.00 0.03 0.00 66 997.2
20260509101706 6 281 12.9 25.7 0.00 0.03 0.00 66 997.4
20260509101148 6 284 14.5 25.7 0.00 0.03 0.00 65 997.5
20260509100614 6 267 12.9 19.3 0.00 0.03 0.00 66 997.3
20260509100420 6 271 11.3 19.3 0.00 0.03 0.00 67 997.2
20260509100338 6 271 11.3 19.3 0.00 0.03 0.00 67 997.2
20260509100221 6 283 11.3 19.3 0.00 0.03 0.00 67 997.1
20260509095719 6 269 12.9 19.3 0.00 0.03 0.00 67 997.1
20260509095222 6 273 14.5 19.3 0.00 0.03 0.00 67 996.9
20260509095118 6 273 14.5 19.3 0.00 0.03 0.00 67 996.9
20260509094921 6 275 14.5 17.7 0.00 0.03 0.00 67 996.9
20260509094721 6 243 12.9 17.7 0.00 0.03 0.00 67 996.9
20260509094638 6 243 12.9 17.7 0.00 0.03 0.00 67 996.9
20260509094223 5 266 9.7 14.5 0.00 0.03 0.00 68 996.8
20260509093706 6 241 8.0 12.9 0.00 0.03 0.00 68 996.7
20260509093407 6 251 8.0 14.5 0.00 0.03 0.00 67 996.7
20260509093208 6 240 4.8 14.5 0.00 0.03 0.00 67 996.7
20260509093126 6 240 4.8 14.5 0.00 0.03 0.00 67 996.7
20260509092731 6 279 9.7 14.5 0.00 0.03 0.00 67 996.8
20260509092114 6 290 6.4 14.5 0.00 0.03 0.00 67 996.8
20260509091816 6 300 8.0 14.5 0.00 0.03 0.00 69 996.8
20260509091622 5 295 4.8 12.9 0.00 0.03 0.00 70 996.7
20260509091202 5 286 6.4 11.3 0.00 0.03 0.00 71 996.8
20260509090646 5 281 6.4 11.3 0.00 0.03 0.00 73 996.8
20260509090426 5 301 6.4 14.5 0.00 0.03 0.00 73 996.8
20260509090129 5 311 6.4 14.5 0.00 0.03 0.00 73 996.9
20260509085709 5 285 9.7 14.5 0.00 0.03 0.00 74 996.9
20260509085130 5 277 6.4 12.9 0.00 0.03 0.00 74 996.8
20260509084857 5 275 4.8 11.3 0.00 0.03 0.00 74 996.8
20260509084814 5 275 4.8 11.3 0.00 0.03 0.00 74 996.8
20260509084635 5 275 4.8 11.3 0.00 0.03 0.00 74 996.8
20260509084201 4 294 4.8 14.5 0.00 0.03 0.00 74 997.0
20260509083642 5 279 11.3 14.5 0.00 0.03 0.00 73 997.1
20260509083428 5 279 8.0 12.9 0.00 0.03 0.00 73 996.9
20260509083324 5 279 8.0 12.9 0.00 0.03 0.00 73 996.9
20260509083128 5 269 8.0 12.9 0.00 0.03 0.00 73 997.0
20260509082613 5 261 6.4 11.3 0.00 0.03 0.00 73 996.9
20260509082139 5 274 3.2 8.0 0.00 0.03 0.00 73 996.9
20260509081900 5 263 3.2 8.0 0.00 0.03 0.00 73 996.8
20260509081627 5 263 4.8 8.0 0.00 0.03 0.00 73 996.8
20260509081208 5 279 4.8 8.0 0.00 0.03 0.00 72 996.9
20260509081126 5 279 4.8 8.0 0.00 0.03 0.00 72 996.9
20260509080633 5 272 4.8 6.4 0.00 0.03 0.00 72 996.9
20260509080318 4 263 4.8 6.4 0.00 0.03 0.00 73 996.9
20260509080122 4 257 3.2 6.4 0.00 0.03 0.00 73 996.9
20260509075629 4 252 3.2 6.4 0.00 0.03 0.00 73 996.9
20260509075156 5 250 4.8 6.4 0.00 0.03 0.00 73 997.0
20260509074814 5 264 4.8 6.4 0.00 0.03 0.00 73 997.0
20260509074622 5 265 3.2 4.8 0.00 0.03 0.00 72 997.0
20260509074128 5 265 3.2 9.7 0.00 0.03 0.00 72 997.1
20260509073615 5 267 4.8 9.7 0.00 0.03 0.00 72 997.1
20260509073414 5 278 4.8 9.7 0.00 0.03 0.00 72 997.2
20260509073133 5 207 3.2 4.8 0.00 0.03 0.00 71 997.2
20260509072658 5 207 3.2 6.4 0.00 0.03 0.00 70 997.2
20260509072202 6 207 4.8 11.3 0.00 0.03 0.00 70 997.2
20260509071843 6 205 4.8 11.3 0.00 0.03 0.00 70 997.3
20260509071725 5 204 4.8 11.3 0.00 0.03 0.00 71 997.2
20260509071148 5 201 4.8 9.7 0.00 0.03 0.00 73 997.4
20260509070654 4 209 4.8 8.0 0.00 0.03 0.00 75 997.5
20260509070611 4 209 4.8 8.0 0.00 0.03 0.00 75 997.5
20260509070432 3 219 3.2 6.4 0.00 0.03 0.00 75 997.5
20260509070159 3 217 1.6 3.2 0.00 0.03 0.00 75 997.5
20260509065612 3 217 1.6 6.4 0.00 0.03 0.00 75 997.6
20260509065117 3 217 3.2 6.4 0.00 0.03 0.00 75 997.7
20260509064940 3 216 4.8 6.4 0.00 0.03 0.00 75 997.7
20260509064857 3 216 4.8 6.4 0.00 0.03 0.00 75 997.7
20260509064728 3 197 3.2 4.8 0.00 0.03 0.00 74 997.7
20260509064624 3 197 3.2 4.8 0.00 0.03 0.00 74 997.7
20260509064157 3 130 0.0 1.6 0.00 0.03 0.00 74 997.7
20260509063625 3 130 0.0 1.6 0.00 0.03 0.00 73 997.9
20260509063406 3 130 0.0 1.6 0.00 0.03 0.00 72 997.9
20260509063324 3 130 0.0 1.6 0.00 0.03 0.00 72 997.9
20260509063126 3 130 0.0 3.2 0.00 0.03 0.00 71 997.9
20260509062649 4 130 1.6 3.2 0.00 0.03 0.00 69 998.0
20260509062135 5 130 1.6 4.8 0.00 0.03 0.00 70 998.1
20260509061820 4 130 1.6 4.8 0.00 0.03 0.00 71 998.1
20260509061624 4 130 1.6 4.8 0.00 0.03 0.00 72 998.2
20260509061131 3 115 1.6 4.8 0.00 0.03 0.00 75 998.3
20260509060614 2 112 1.6 4.8 0.00 0.03 0.00 73 998.4
20260509060314 2 112 0.0 1.6 0.00 0.03 0.00 73 998.5
20260509060125 2 112 0.0 1.6 0.00 0.03 0.00 72 998.6
20260509055658 3 112 0.0 1.6 0.00 0.03 0.00 72 998.6
20260509055616 3 112 0.0 1.6 0.00 0.03 0.00 72 998.6
20260509055222 3 112 0.0 0.0 0.00 0.03 0.00 72 998.8
20260509055119 3 112 0.0 0.0 0.00 0.03 0.00 72 998.8
20260509054920 3 112 0.0 0.0 0.00 0.03 0.00 71 998.9
20260509054729 3 112 0.0 0.0 0.00 0.03 0.00 71 999.0
20260509054200 3 112 0.0 0.0 0.00 0.03 0.00 70 998.9
20260509053704 4 112 0.0 0.0 0.00 0.03 0.00 69 998.9
20260509053621 4 112 0.0 0.0 0.00 0.03 0.00 69 998.9
20260509053344 4 112 0.0 0.0 0.00 0.03 0.00 69 998.9
20260509053214 4 112 0.0 0.0 0.00 0.03 0.00 69 998.9
20260509052640 4 112 0.0 0.0 0.00 0.03 0.00 68 999.1
20260509052142 4 112 0.0 1.6 0.00 0.03 0.00 67 999.1
20260509051903 4 112 0.0 1.6 0.00 0.03 0.00 67 999.1
20260509051724 4 112 0.0 1.6 0.00 0.03 0.00 66 999.2
20260509051641 4 112 0.0 1.6 0.00 0.03 0.00 66 999.2
20260509051146 4 112 0.0 1.6 0.00 0.03 0.00 66 999.2
20260509050711 5 112 0.0 3.2 0.00 0.03 0.00 65 999.4
20260509050349 5 112 0.0 3.2 0.00 0.03 0.00 65 999.4
20260509050127 5 112 0.0 3.2 0.00 0.03 0.00 65 999.4
20260509045614 5 112 0.0 6.4 0.00 0.03 0.00 64 999.6
20260509045135 5 112 1.6 6.4 0.00 0.03 0.00 64 999.7
20260509044857 5 105 1.6 6.4 0.00 0.03 0.00 64 999.6
20260509044814 5 105 1.6 6.4 0.00 0.03 0.00 64 999.6
20260509044657 5 105 1.6 6.4 0.00 0.03 0.00 64 999.7
20260509044121 5 109 0.0 4.8 0.00 0.03 0.00 62 999.8
20260509043706 5 109 1.6 4.8 0.00 0.03 0.00 60 1000.0
20260509043345 5 109 0.0 3.2 0.00 0.03 0.00 59 1000.1
20260509043150 5 109 0.0 3.2 0.00 0.03 0.00 60 1000.1
20260509042615 6 109 1.6 3.2 0.00 0.03 0.00 57 1000.2
20260509042114 6 109 1.6 6.4 0.00 0.03 0.00 56 1000.4
20260509041841 6 109 1.6 6.4 0.00 0.03 0.00 55 1000.3
20260509041703 6 109 3.2 6.4 0.00 0.03 0.00 55 1000.4
20260509041126 7 109 3.2 6.4 0.00 0.03 0.00 55 1000.5
20260509040614 6 110 1.6 6.4 0.00 0.03 0.00 55 1000.6
20260509040418 7 109 3.2 6.4 0.00 0.03 0.00 54 1000.6
20260509040335 7 109 3.2 6.4 0.00 0.03 0.00 54 1000.6
20260509040158 7 109 4.8 6.4 0.00 0.03 0.00 53 1000.7
20260509035645 6 108 1.6 6.4 0.00 0.03 0.03 54 1000.9
20260509035230 6 108 1.6 6.4 0.00 0.03 0.03 53 1000.9
20260509035148 6 108 1.6 6.4 0.00 0.03 0.03 53 1000.9
20260509034910 6 110 1.6 4.8 0.00 0.03 0.03 53 1000.9
20260509034611 6 110 1.6 4.8 0.00 0.03 0.03 53 1000.9
20260509034117 6 110 1.6 11.3 0.00 0.03 0.03 52 1001.0
20260509033642 6 105 1.6 11.3 0.00 0.03 0.03 51 1001.0
20260509033327 6 116 4.8 11.3 0.00 0.03 0.03 50 1001.1
20260509033148 6 118 3.2 6.4 0.00 0.03 0.03 51 1001.1
20260509032655 6 119 1.6 6.4 0.00 0.03 0.03 52 1001.1
20260509032219 5 120 3.2 6.4 0.00 0.03 0.03 55 1001.3
20260509032115 5 120 3.2 6.4 0.00 0.03 0.03 55 1001.3
20260509031813 5 117 1.6 6.4 0.00 0.03 0.03 55 1001.3
20260509031656 5 117 1.6 6.4 0.00 0.03 0.03 55 1001.3
20260509031200 5 117 3.2 6.4 0.00 0.03 0.03 55 1001.3
20260509031118 5 117 3.2 6.4 0.00 0.03 0.03 55 1001.3
20260509030721 6 124 3.2 6.4 0.00 0.03 0.03 52 1001.4
20260509030339 6 134 1.6 6.4 0.00 0.03 0.03 52 1001.4
20260509030202 6 136 1.6 6.4 0.00 0.03 0.03 52 1001.5
20260509025726 6 103 0.0 1.6 0.00 0.08 0.03 51 1001.6
20260509025623 6 103 0.0 1.6 0.00 0.08 0.03 51 1001.6
20260509025226 6 103 0.0 1.6 0.00 0.08 0.03 51 1001.7
20260509025144 6 103 0.0 1.6 0.00 0.08 0.03 51 1001.7
20260509024849 6 103 0.0 1.6 0.00 0.08 0.03 51 1001.7
20260509024650 6 103 0.0 1.6 0.00 0.08 0.03 51 1001.7
20260509024133 6 103 0.0 1.6 0.00 0.08 0.03 49 1001.8
20260509023700 6 103 0.0 1.6 0.00 0.08 0.03 50 1001.7
20260509023359 6 103 0.0 3.2 0.00 0.08 0.03 51 1001.7
20260509023138 6 103 0.0 3.2 0.00 0.08 0.03 52 1001.7
20260509022703 6 103 0.0 4.8 0.00 0.08 0.03 51 1001.8
20260509022620 6 103 0.0 4.8 0.00 0.08 0.03 51 1001.8
20260509022207 6 103 3.2 4.8 0.00 0.08 0.03 50 1001.7
20260509021827 7 103 3.2 4.8 0.00 0.08 0.03 52 1001.6
20260509021653 7 97 1.6 4.8 0.00 0.08 0.03 48 1001.7
20260509021211 7 97 1.6 6.4 0.00 0.08 0.03 47 1001.7
20260509020617 7 96 1.6 6.4 0.00 0.08 0.03 46 1001.8
20260509020323 7 90 1.6 6.4 0.00 0.08 0.03 47 1001.8
20260509020226 7 89 1.6 6.4 0.00 0.08 0.03 47 1001.8
20260509020122 7 89 1.6 6.4 0.00 0.08 0.03 47 1001.8
20260509015625 7 90 1.6 6.4 0.00 0.08 0.03 47 1001.9
20260509015228 7 89 1.6 6.4 0.00 0.08 0.03 48 1001.9
20260509015146 7 89 1.6 6.4 0.00 0.08 0.03 48 1001.9
20260509014811 7 88 1.6 6.4 0.00 0.08 0.03 47 1001.9
20260509014654 7 89 3.2 6.4 0.00 0.08 0.03 46 1001.9
20260509014219 7 89 3.2 6.4 0.00 0.08 0.03 45 1001.9
20260509014136 7 89 3.2 6.4 0.00 0.08 0.03 45 1001.9
20260509013640 8 89 1.6 6.4 0.00 0.08 0.03 44 1002.0
20260509013319 8 73 3.2 4.8 0.00 0.08 0.03 42 1002.0
20260509013223 8 62 1.6 6.4 0.00 0.08 0.03 41 1002.1
20260509013140 8 62 1.6 6.4 0.00 0.08 0.03 41 1002.1
20260509012645 8 61 1.6 6.4 0.00 0.08 0.03 42 1002.1
20260509012112 8 61 3.2 8.0 0.00 0.08 0.03 43 1002.0
20260509011836 8 61 3.2 8.0 0.00 0.08 0.03 41 1002.1
20260509011636 8 61 4.8 8.0 0.00 0.08 0.03 40 1002.1
20260509011202 8 66 3.2 6.4 0.00 0.08 0.03 39 1002.3
20260509011120 8 66 3.2 6.4 0.00 0.08 0.03 39 1002.3
20260509010701 8 66 3.2 8.0 0.00 0.08 0.03 40 1002.4
20260509010426 8 66 4.8 9.7 0.00 0.08 0.03 39 1002.5
20260509010344 8 66 4.8 9.7 0.00 0.08 0.03 39 1002.5
20260509010205 8 67 3.2 9.7 0.00 0.08 0.03 40 1002.5
20260509010123 8 67 3.2 9.7 0.00 0.08 0.03 40 1002.5
20260509005729 8 73 3.2 16.1 0.00 0.08 0.03 39 1002.4
20260509005626 8 73 3.2 16.1 0.00 0.08 0.03 39 1002.4
20260509005113 9 80 4.8 16.1 0.00 0.08 0.03 40 1002.3
20260509004815 9 69 6.4 16.1 0.00 0.08 0.03 39 1002.2
20260509004635 9 65 6.4 12.9 0.00 0.08 0.03 39 1002.2
20260509004121 9 97 4.8 12.9 0.00 0.08 0.03 39 1002.3
20260509003728 9 128 4.8 12.9 0.00 0.08 0.03 41 1002.3
20260509003625 9 128 4.8 12.9 0.00 0.08 0.03 41 1002.3
20260509003405 9 100 3.2 11.3 0.00 0.08 0.03 41 1002.2
20260509003227 9 105 1.6 9.7 0.00 0.08 0.03 41 1002.2
20260509002729 10 83 6.4 9.7 0.00 0.08 0.03 39 1002.3
20260509002626 10 83 6.4 9.7 0.00 0.08 0.03 39 1002.3
20260509002154 10 116 4.8 11.3 0.00 0.08 0.03 38 1002.3
20260509001853 10 102 3.2 11.3 0.00 0.08 0.03 38 1002.3
20260509001620 10 102 4.8 11.3 0.00 0.08 0.03 38 1002.3
20260509001126 10 119 3.2 9.7 0.00 0.08 0.03 39 1002.4
20260509000614 10 121 4.8 9.7 0.00 0.08 0.03 38 1002.5
20260509000336 10 81 1.6 8.0 0.00 0.08 0.03 39 1002.4
20260509000117 10 80 3.2 8.0 0.00 0.08 0.03 39 1002.3
20260508235723 10 108 4.8 9.7 0.00 0.08 0.03 39 1002.4
20260508235128 10 142 1.6 11.3 0.00 0.08 0.03 39 1002.6
20260508234832 10 144 3.2 11.3 0.00 0.08 0.03 38 1002.6
20260508234620 10 105 1.6 6.4 0.00 0.08 0.03 39 1002.6
20260508234127 10 97 3.2 6.4 0.00 0.08 0.03 39 1002.5
20260508233712 10 109 1.6 4.8 0.00 0.08 0.03 38 1002.6
20260508233433 10 109 1.6 11.3 0.00 0.08 0.03 38 1002.6
20260508233351 10 109 1.6 11.3 0.00 0.08 0.03 38 1002.6
20260508233138 10 104 1.6 12.9 0.00 0.08 0.03 38 1002.6
20260508232611 10 103 4.8 12.9 0.00 0.08 0.03 37 1002.5
20260508232118 10 109 4.8 12.9 0.00 0.08 0.03 38 1002.6
20260508231940 10 65 3.2 12.9 0.00 0.08 0.03 40 1002.6
20260508231646 10 87 4.8 12.9 0.00 0.08 0.03 37 1002.7
20260508231118 10 79 4.8 11.3 0.00 0.08 0.03 37 1002.7
20260508230625 10 108 4.8 11.3 0.00 0.08 0.03 38 1002.6
20260508230347 10 103 4.8 12.9 0.00 0.08 0.03 38 1002.7
20260508230121 10 94 4.8 12.9 0.00 0.08 0.03 38 1002.7
20260508225711 10 102 8.0 17.7 0.00 0.08 0.03 38 1002.7
20260508225628 10 102 8.0 17.7 0.00 0.08 0.03 38 1002.7
20260508225222 10 121 11.3 17.7 0.00 0.08 0.03 38 1002.7
20260508225140 10 121 11.3 17.7 0.00 0.08 0.03 38 1002.7
20260508224900 10 98 8.0 17.7 0.00 0.08 0.03 37 1002.7
20260508224633 10 101 9.7 17.7 0.00 0.08 0.03 38 1002.8
20260508224142 11 92 8.0 16.1 0.00 0.08 0.03 39 1002.7
20260508223625 10 100 8.0 16.1 0.00 0.08 0.03 37 1002.7
20260508223332 11 78 9.7 16.1 0.00 0.08 0.03 36 1002.7
20260508223113 11 94 6.4 16.1 0.00 0.08 0.03 37 1002.7
20260508222635 11 90 8.0 16.1 0.00 0.08 0.03 36 1002.8
20260508222120 10 88 6.4 19.3 0.00 0.08 0.03 36 1002.9
20260508221901 10 53 4.8 19.3 0.00 0.08 0.03 35 1002.9
20260508221641 10 98 8.0 19.3 0.00 0.08 0.03 36 1002.8
20260508221124 11 100 11.3 17.7 0.00 0.08 0.03 36 1002.8
20260508220708 11 77 6.4 17.7 0.00 0.08 0.03 38 1002.8
20260508220329 11 88 8.0 17.7 0.00 0.08 0.03 38 1003.0
20260508220151 11 80 9.7 17.7 0.00 0.08 0.03 38 1003.0
20260508215616 10 61 9.7 20.9 0.00 0.08 0.03 39 1002.9
20260508215143 11 72 9.7 20.9 0.00 0.08 0.03 37 1003.0
20260508214908 11 92 8.0 19.3 0.00 0.08 0.03 38 1003.0
20260508214650 11 81 6.4 19.3 0.00 0.08 0.03 37 1003.0
20260508214115 11 96 11.3 19.3 0.00 0.08 0.03 38 1002.8
20260508213702 11 101 9.7 16.1 0.00 0.08 0.03 37 1003.0
20260508213620 11 101 9.7 16.1 0.00 0.08 0.03 37 1003.0
20260508213401 11 54 6.4 17.7 0.00 0.08 0.03 38 1003.0
20260508213319 11 54 6.4 17.7 0.00 0.08 0.03 38 1003.0
20260508213123 11 65 9.7 17.7 0.00 0.08 0.03 37 1003.0
20260508212729 11 96 9.7 17.7 0.00 0.08 0.03 36 1002.9
20260508212625 11 96 9.7 17.7 0.00 0.08 0.03 36 1002.9
20260508212127 11 74 8.0 19.3 0.00 0.08 0.03 36 1002.9
20260508211910 12 82 8.0 19.3 0.00 0.08 0.03 34 1003.0
20260508211650 12 71 9.7 19.3 0.00 0.08 0.03 35 1002.9
20260508211134 12 78 11.3 17.7 0.00 0.08 0.03 36 1002.9
20260508210619 12 106 6.4 17.7 0.00 0.08 0.03 37 1002.9
20260508210323 12 113 9.7 17.7 0.00 0.08 0.03 38 1002.9
20260508210123 12 92 8.0 17.7 0.00 0.08 0.03 38 1003.0
20260508205725 11 63 9.7 17.7 0.00 0.08 0.03 39 1003.0
20260508205111 11 88 11.3 17.7 0.00 0.08 0.03 38 1003.1
20260508204853 12 113 9.7 20.9 0.00 0.08 0.03 39 1003.1
20260508204636 12 80 9.7 20.9 0.00 0.08 0.03 40 1003.1
20260508204222 11 93 6.4 19.3 0.00 0.08 0.03 42 1003.3
20260508203626 11 93 9.7 19.3 0.00 0.08 0.03 40 1003.2
20260508203312 11 86 11.3 19.3 0.00 0.08 0.03 40 1003.2
20260508203116 11 71 9.7 19.3 0.00 0.08 0.03 40 1003.3
20260508202641 11 86 9.7 17.7 0.00 0.08 0.03 40 1003.3
20260508202125 11 96 11.3 17.7 0.00 0.08 0.03 41 1003.3
20260508201929 11 95 6.4 17.7 0.00 0.08 0.03 40 1003.4
20260508201706 11 95 8.0 17.7 0.00 0.08 0.03 41 1003.4
20260508201130 11 84 12.9 17.7 0.00 0.08 0.03 41 1003.6